Weather History for Fort Meade, MD

Change the Weather History Date:

Wednesday, May 28, 2014

  Actual Average (KBWI) Record (KBWI)
Temperature  
Mean Temperature 68 °F 67 °F  
Max Temperature 80 °F 77 °F 97 °F (1941)
Min Temperature 55 °F 56 °F 38 °F (1961)
Degree Days  
Heating Degree Days 0 2  
Month to date heating degree days 128  
Since 1 July heating degree days 4743  
Cooling Degree Days 4 4  
Month to date cooling degree days 58  
Year to date cooling degree days 72  
Growing Degree Days 18 (Base 50)    
Moisture  
Dew Point 64 °F    
Average Humidity 84    
Maximum Humidity 100    
Minimum Humidity 58    
Precipitation  
Precipitation 0.00 in 0.13 in 2.46 in (1968)
Month to date precipitation 3.59  
Year to date precipitation 16.63  
Snow  
Snow 0.00 in 0.00 in - ()
Month to date snowfall 0.0  
Since 1 July snowfall 20.1  
Snow Depth -    
Sea Level Pressure  
Sea Level Pressure 29.94 in    
Wind  
Wind Speed 4 mph (NW)    
Max Wind Speed 16 mph    
Max Gust Speed 23 mph    
Visibility 6 miles    
Events      
T = Trace of Precipitation, MM = Missing Value Source: NWS Daily Summary

Daily Weather History Graph

Daily Weather History Graph

Search for Another Location

Airport:

Trip Planner

Search our weather history database for the weather conditions in past years. The results will help you decide how hot, cold, wet, or windy it might be!

Date:

Astronomy

May. 28, 2014 Rise Set
Actual Time 5:44 AM EDT 8:24 PM EDT
Civil Twilight 5:13 AM EDT 8:55 PM EDT
Nautical Twilight 4:34 AM EDT 9:34 PM EDT
Astronomical Twilight 3:50 AM EDT 10:18 PM EDT
Moon 5:48 AM EDT (5/28) 8:21 PM EDT (5/28)
Length of Visible Light 15h 41m
Length of Day
14h 39m
Waning Crescent, 0% of the Moon is Illuminated
May 28
Waning Crescent
May 28
New
Jun 5
First Quarter
Jun 13
Full
Jun 19
Last Quarter

Hourly Weather History & Observations

Time (EDT) Temp. Heat Index Dew Point Humidity Pressure Visibility Wind Dir Wind Speed Gust Speed Precip Events Conditions
12:09 AM 64.4 °F - 64.4 °F 100% 29.91 in 2.0 mi WSW 4.6 mph - N/A   Scattered Clouds
12:27 AM 66.2 °F - 64.4 °F 94% 29.90 in 1.8 mi Calm Calm - N/A   Unknown
12:48 AM 66.2 °F - 64.4 °F 94% 29.91 in 2.0 mi Calm Calm - N/A   Clear
1:09 AM 66.2 °F - 64.4 °F 94% 29.90 in 2.0 mi Calm Calm - N/A   Clear
1:30 AM 66.2 °F - 64.4 °F 94% 29.90 in 1.2 mi Calm Calm - N/A   Unknown
1:48 AM 64.4 °F - 64.4 °F 100% 29.90 in 1.2 mi SW 3.5 mph - N/A   Unknown
2:09 AM 64.4 °F - 64.4 °F 100% 29.89 in 1.2 mi SW 3.5 mph - N/A   Unknown
2:30 AM 64.4 °F - 64.4 °F 100% 29.89 in 1.5 mi West 3.5 mph - N/A   Mostly Cloudy
2:48 AM 66.2 °F - 64.4 °F 94% 29.89 in 1.5 mi WSW 5.8 mph - N/A   Mostly Cloudy
3:09 AM 64.4 °F - 64.4 °F 100% 29.89 in 2.0 mi Calm Calm - N/A   Clear
3:30 AM 64.4 °F - 62.6 °F 94% 29.88 in 1.8 mi Calm Calm - N/A   Unknown
3:48 AM 64.4 °F - 62.6 °F 94% 29.88 in 2.0 mi Calm Calm - N/A   Clear
4:09 AM 64.4 °F - 62.6 °F 94% 29.88 in 2.0 mi Calm Calm - N/A   Clear
4:30 AM 64.4 °F - 62.6 °F 94% 29.87 in 1.2 mi WSW 3.5 mph - N/A   Unknown
4:48 AM 64.4 °F - 62.6 °F 94% 29.88 in 1.5 mi WSW 5.8 mph - N/A   Unknown
5:09 AM 62.6 °F - 62.6 °F 100% 29.88 in 1.5 mi Calm Calm - N/A   Unknown
5:30 AM 62.6 °F - 60.8 °F 94% 29.88 in 1.2 mi Calm Calm - N/A   Unknown
5:48 AM 62.6 °F - 60.8 °F 94% 29.89 in 1.0 mi Calm Calm - N/A   Mostly Cloudy
6:09 AM 62.6 °F - 62.6 °F 100% 29.90 in 1.5 mi Calm Calm - N/A   Mostly Cloudy
6:30 AM 64.4 °F - 62.6 °F 94% 29.90 in 1.8 mi Calm Calm - N/A   Scattered Clouds
6:48 AM 64.4 °F - 62.6 °F 94% 29.90 in 1.5 mi Calm Calm - N/A   Mostly Cloudy
7:09 AM 66.2 °F - 64.4 °F 94% 29.90 in 3.0 mi WNW 3.5 mph - N/A   Scattered Clouds
7:30 AM 66.2 °F - 64.4 °F 94% 29.90 in 3.0 mi NW 5.8 mph - N/A   Clear
7:48 AM 66.2 °F - 64.4 °F 94% 29.91 in 7.0 mi NW 5.8 mph - N/A   Clear
8:09 AM 68.0 °F - 64.4 °F 88% 29.91 in 2.5 mi West 4.6 mph - N/A   Clear
8:30 AM 68.0 °F - 66.2 °F 94% 29.92 in 4.0 mi West 5.8 mph - N/A   Clear
8:48 AM 68.0 °F - 66.2 °F 94% 29.93 in 4.0 mi West 5.8 mph - N/A   Mostly Cloudy
9:09 AM 68.0 °F - 64.4 °F 88% 29.93 in 4.0 mi West 4.6 mph - N/A   Overcast
9:30 AM 68.0 °F - 66.2 °F 94% 29.93 in 5.0 mi WNW 3.5 mph - N/A   Overcast
10:09 AM 69.8 °F - 68.0 °F 94% 29.93 in 7.0 mi WNW 5.8 mph - N/A   Mostly Cloudy
10:30 AM 73.4 °F - 66.2 °F 78% 29.93 in 10.0 mi NW 3.5 mph - N/A   Mostly Cloudy
10:51 AM 73.4 °F - 68.0 °F 83% 29.94 in 10.0 mi NW 6.9 mph - N/A   Scattered Clouds
11:09 AM 73.4 °F - 68.0 °F 83% 29.94 in 10.0 mi West 4.6 mph - N/A   Scattered Clouds
11:30 AM 73.4 °F - 68.0 °F 83% 29.94 in 7.0 mi WNW 4.6 mph - N/A   Scattered Clouds
11:51 AM 73.4 °F - 68.0 °F 83% 29.95 in 10.0 mi WNW 3.5 mph - N/A   Mostly Cloudy
12:09 PM 73.4 °F - 68.0 °F 83% 29.95 in 7.0 mi West 4.6 mph - N/A   Scattered Clouds
12:30 PM 77.0 °F - 68.0 °F 74% 29.95 in 10.0 mi WNW 5.8 mph - N/A   Scattered Clouds
12:51 PM 78.8 °F - 68.0 °F 69% 29.95 in 10.0 mi West 8.1 mph - N/A   Scattered Clouds
1:09 PM 78.8 °F - 68.0 °F 69% 29.95 in 10.0 mi WNW 8.1 mph - N/A   Scattered Clouds
1:30 PM 80.6 °F 82.7 °F 66.2 °F 61% 29.95 in 10.0 mi WNW 8.1 mph - N/A   Scattered Clouds
1:51 PM 78.8 °F - 66.2 °F 65% 29.95 in 10.0 mi NW 3.5 mph - N/A   Mostly Cloudy
2:09 PM 78.8 °F - 66.2 °F 65% 29.94 in 10.0 mi WNW 8.1 mph - N/A   Overcast
2:51 PM 78.8 °F - 64.4 °F 61% 29.94 in 10.0 mi NW 8.1 mph - N/A   Mostly Cloudy
3:09 PM 78.8 °F - 66.2 °F 65% 29.94 in 10.0 mi NNW 5.8 mph - N/A   Mostly Cloudy
3:30 PM 78.8 °F - 66.2 °F 65% 29.93 in 10.0 mi NW 5.8 mph - N/A   Mostly Cloudy
3:51 PM 78.8 °F - 64.4 °F 61% 29.93 in 10.0 mi NW 3.5 mph - N/A   Scattered Clouds
4:09 PM 80.6 °F 82.3 °F 64.4 °F 58% 29.93 in 10.0 mi NW 5.8 mph - N/A   Clear
4:30 PM 78.8 °F - 64.4 °F 61% 29.93 in 10.0 mi WNW 4.6 mph - N/A   Clear
4:51 PM 78.8 °F - 64.4 °F 61% 29.93 in 10.0 mi NNW 4.6 mph - N/A   Clear
5:09 PM 78.8 °F - 64.4 °F 61% 29.93 in 10.0 mi NNW 4.6 mph - N/A   Clear
5:30 PM 78.8 °F - 64.4 °F 61% 29.93 in 10.0 mi North 3.5 mph - N/A   Clear
5:51 PM 78.8 °F - 64.4 °F 61% 29.93 in 10.0 mi Calm Calm - N/A   Clear
6:12 PM 77.0 °F - 68.0 °F 74% 29.93 in 10.0 mi Calm Calm - N/A   Scattered Clouds
6:30 PM 78.8 °F - 68.0 °F 69% 29.93 in 10.0 mi Calm Calm - N/A   Scattered Clouds
6:51 PM 77.0 °F - 64.4 °F 65% 29.93 in 10.0 mi East 8.1 mph - N/A   Mostly Cloudy
7:12 PM 73.4 °F - 66.2 °F 78% 29.95 in 10.0 mi East 15.0 mph 18.4 mph N/A   Mostly Cloudy
7:30 PM 69.8 °F - 64.4 °F 83% 29.98 in 7.0 mi East 13.8 mph 20.7 mph N/A   Mostly Cloudy
7:51 PM 68.0 °F - 62.6 °F 83% 30.01 in 5.0 mi East 11.5 mph - N/A   Overcast
8:12 PM 64.4 °F - 60.8 °F 88% 30.03 in 7.0 mi East 13.8 mph 21.9 mph N/A   Overcast
8:51 PM 62.6 °F - 59.0 °F 88% 30.05 in 10.0 mi East 16.1 mph - N/A   Overcast
9:12 PM 60.8 °F - 57.2 °F 88% 30.05 in 10.0 mi East 15.0 mph 23.0 mph N/A   Overcast
9:30 PM 60.8 °F - 55.4 °F 82% 30.07 in 10.0 mi East 15.0 mph 20.7 mph N/A   Overcast
9:51 PM 60.8 °F - 55.4 °F 82% 30.09 in 10.0 mi East 11.5 mph - N/A   Overcast
10:12 PM 59.0 °F - 55.4 °F 88% 30.10 in 7.0 mi East 13.8 mph - N/A   Overcast
10:30 PM 59.0 °F - 55.4 °F 88% 30.10 in 5.0 mi East 9.2 mph 18.4 mph N/A   Overcast
11:12 PM 57.2 °F - 55.4 °F 94% 30.12 in 5.0 mi ENE 9.2 mph - N/A   Overcast
11:30 PM 57.2 °F - 53.6 °F 88% 30.12 in 4.0 mi ENE 11.5 mph - N/A   Overcast
11:51 PM 55.4 °F - 53.6 °F 94% 30.13 in 4.0 mi East 8.1 mph - N/A   Overcast